Regional Weather Roundup
Issued by NWS

Home | Current Version | Previous Version | Graphics & Text | Print | Product List | Glossary On
Versions: 1 2 3 4 5 6 7 8 9 10 11 12 13 14 15 16 17 18 19 20 21 22 23 24 25 26 27 28 29 30 31 32 33 34 35 36 37 38 39 40 41 42 43 44 45 46 47 48 49 50
338
ASUS45 KBOU 280407
RWRCO

WEATHER ROUNDUP FOR COLORADO
NATIONAL WEATHER SERVICE DENVER/BOULDER CO
1000 PM MDT THU APR 27 2017

NOTE: "FAIR" INDICATES FEW OR NO CLOUDS BELOW 12000 FEET WITH NO
SIGNIFICANT WEATHER AND/OR OBSTRUCTIONS TO VISIBILITY.

COZ001>005-013-030-031-280500-
...NORTHWEST COLORADO...

CITY           SKY/WX    TMP DP  RH WIND       PRES   REMARKS
CRAIG          CLOUDY    35  26  69 W9        29.77R WCI  28
HAYDEN         CLOUDY    34  23  64 W9        29.76R WCI  26
MEEKER         MOCLDY    35  27  72 SW5       29.79R WCI  31
MOUNT WERNER   NOT AVBL
STEAMBOAT SPGS FAIR      32  27  81 CALM      29.75R
WALDEN           N/A     28  27  93 NW5       29.74R WCI  23
$$

COZ006>008-011-280500-
...WEST CENTRAL VALLEYS...

CITY           SKY/WX    TMP DP  RH WIND       PRES   REMARKS
GRAND JUNCTION MOCLDY    47  19  33 E8        29.74R
MONTROSE       FAIR      42  17  36 N5        29.79R
EAGLE          MOCLDY    37  24  59 W7        29.79R
RIFLE          FAIR      39  29  67 W7        29.78R
DELTA          FAIR      49  17  28 NW20G25   29.75R
NUCLA          FAIR      43   9  24 N3        29.81R
$$

COZ017>023-064>068-280500-
...SOUTHWEST COLORADO...

CITY           SKY/WX    TMP DP  RH WIND       PRES   REMARKS
DURANGO        CLOUDY    42  12  29 W7        29.74R
CORTEZ         CLOUDY    44  18  35 N7        29.77R
PAGOSA SPRINGS FAIR      40   3  21 W6        29.75S
TELLURIDE      FAIR      32   8  35 CALM      29.85R
WOLF CREEK PAS FAIR      19  -2  38 W8        29.86R WCI   9
$$

COZ009-010-012-014-032>034-037-058>063-280500-
...CENTRAL COLORADO...

CITY           SKY/WX    TMP DP  RH WIND       PRES   REMARKS
ASPEN          LGT SNOW  29  29 100 CALM      29.77S FOG
BUENA VISTA    FAIR      31  23  72 NW15      29.74R WCI  20
COPPER MTN     CLOUDY    19  14  79 MISG      29.76R
BERTHOUD PASS  CLOUDY    10   0  61 NW28G38   29.70R WCI -11
COTTONWOOD PAS FAIR      32  12  43 SW10G24   29.75R WCI  24
GUNNISON       FAIR      33  20  58 CALM      29.78R
KREMMLING      FAIR      36  23  60 W5        29.77R
LEADVILLE      SNOW      21  18  88 SW5       29.75R VSB 1/4 WCI  15
MONARCH PASS     N/A     18  14  86 W18G26    29.88R WCI   2
SALIDA         FAIR      37  21  52 N7        29.82R
SUNLIGHT       CLOUDY    18  16  93 W14G29    29.82R FOG     WCI   4
WILKERSON PASS FAIR      18  14  86 W10G18    29.74F WCI   6
$$

COZ069>075-280500-
...SAN LUIS VALLEY/SANGRE DE CRISTO MOUNTAINS...

CITY           SKY/WX    TMP DP  RH WIND       PRES   REMARKS
ALAMOSA        FAIR      38  13  35 NW7       29.73R
LA VETA PASS   CLOUDY    28  10  47 SW14G23   29.85S WCI  17
SAGUACHE       MOCLDY    34  21  60 NW14G23   29.77R WCI  24
$$

COZ035-036-038>040-280500-
...NORTHERN COLORADO FRONT RANGE...

CITY           SKY/WX    TMP DP  RH WIND       PRES   REMARKS
DENVER INTL AP MOCLDY    37  32  82 E6        29.65R
DMNS CITY PARK   N/A     46  17  31 W12       29.65R
AURORA         MOCLDY    40  34  79 SW8       29.65R
FRONT RANGE AP NOT AVBL
ERIE MUNI ARPT FAIR      43  35  73 S3        29.64R
BOULDER MUN AP FAIR      46  18  31 W9G20     29.63R
CENTENNIAL     FAIR      39  35  86 SE5       29.65R
BROOMFIELD     MOCLDY    45  18  33 W13       29.65R
FORT COLLINS   FAIR      42  34  73 SE5       29.64R
LONGMONT       FAIR      43  35  73 N3        29.66R
$$

COZ041-046-047-076>085-087-088-280500-
...PIKES PEAK/PALMER DIVIDE AND SOUTHERN FOOTHILLS...

CITY           SKY/WX    TMP DP  RH WIND       PRES   REMARKS
COLO. SPRINGS  FAIR      40  32  73 N7        29.67R
A. F. ACADEMY  FAIR      34  33  93 N8        29.66R WCI  28
SCHRIEVER AFB  FAIR      38  31  75 NW10      29.67R
ELLICOTT       FAIR     N/A N/A N/A NW8       29.64R
FALCON         FAIR      37  30  75 NW8G17    29.68R
FORT CARSON    FAIR      42  31  64 CALM      29.66R
LIMON          MOCLDY    36  35  96 N8        29.64R
MONUMENT HILL  FAIR      34  30  86 N5        29.69R WCI  30
TRINIDAD       FAIR      43  35  73 SE5       29.67R
$$

COZ042>045-048>051-090-091-280500-
...NORTHEAST COLORADO...

CITY           SKY/WX    TMP DP  RH WIND       PRES   REMARKS
GREELEY ARPT   FAIR      39  37  92 E7        29.65R
AKRON          FAIR      39  35  86 W12G23    29.63R
BURLINGTON     NOT AVBL
WRAY           NOT AVBL
STERLING       FAIR      37  37 100 NE9       29.62R
HOLYOKE        RAIN      37  36  93 NW7       29.67R
FORT MORGAN    FAIR      38  37  94 W3        29.66R
$$

COZ086-089-092>099-280500-
...SOUTHEAST COLORADO...

CITY           SKY/WX    TMP DP  RH WIND       PRES   REMARKS
PUEBLO         FAIR      45  36  70 N9        29.64R
LA JUNTA       FAIR      45  39  79 NE3       29.64R
LAMAR          FAIR      46  40  79 N8        29.60R
SPRINGFIELD      N/A     44  40  85 N13       29.59R
$$




USA.gov is the U.S. government's official web portal to all federal, state and local government web resources and services.